Regional Weather Roundup
Issued by NWS Northern Indiana

Home | Current Version | Previous Version | Graphics & Text | Print | Product List | Glossary On
Versions: 1 2 3 4 5 6 7 8 9 10 11 12 13 14 15 16 17 18 19 20 21 22 23 24 25 26 27 28 29 30 31 32 33 34 35 36 37 38 39 40 41 42 43 44 45 46 47 48 49 50
510
ASUS43 KIWX 040910
RWRIWX

KIWX WEATHER ROUNDUP
NATIONAL WEATHER SERVICE NORTHERN INDIANA
500 AM EDT WED MAY 04 2016

NOTE: "FAIR" INDICATES FEW OR NO CLOUDS BELOW 12,000 FEET WITH NO
SIGNIFICANT WEATHER AND/OR OBSTRUCTIONS TO VISIBILITY.

* THESE STATIONS ARE NOT UNDER NWS QUALITY CONTROL. THEY ALSO MAY NOT
  REPORT WEATHER SUCH AS PRECIPITATION OR FOG.

INZ001>027-041000-
NORTHERN INDIANA

CITY           SKY/WX    TMP DP  RH WIND       PRES   REMARKS
GARY*          RAIN      51  51 100 N9        29.62F
VALPARAISO     CLOUDY    50  48  93 SW6       29.61F
MICHIGAN CITY* RAIN      48  48 100 SW5       29.62F
LAPORTE*       RAIN      51  51 100 W5        29.62F
KNOX*          CLOUDY    50  43  76 W8        29.63F
SOUTH BEND     LGT RAIN  52  44  74 W14       29.62F
GOSHEN         CLOUDY    53  44  71 S12       29.62F
MONTICELLO*    LGT RAIN  53  42  68 SW10      29.65F
LOGANSPORT*    CLOUDY    52  45  76 SW9       29.66F
ROCHESTER*     MOCLDY    55  46  71 SW7       29.65F
WARSAW*        CLOUDY    54  43  66 SW6       29.64F
ANGOLA*        PTCLDY    52  45  76 SW7       29.63F
FORT WAYNE     CLOUDY    51  44  77 SW9       29.66F
HUNTINGTON*    CLOUDY    52  44  75 SW8       29.66F
PERU/GRISSOM   CLOUDY    52  46  82 SW10      29.64F
MARION*        MOCLDY    50  44  82 SW9       29.69F

$$
INZ028>050-041000-
CENTRAL INDIANA

CITY           SKY/WX    TMP DP  RH WIND       PRES   REMARKS
LAFAYETTE      CLOUDY    52  44  74 SW7       29.66F
KOKOMO*        CLOUDY    54  43  66 SW12G18   29.66F
MUNCIE*        PTCLDY    54  44  69 SW7       29.69F
INDIANAPOLIS   CLOUDY    51  44  77 SW10      29.70F

$$
MIZ043>046-050>051-056>058-064>065-071>073-077>080-041000-
SOUTHWEST LOWER MICHIGAN

CITY           SKY/WX    TMP DP  RH WIND       PRES   REMARKS
BATTLE CREEK   LGT RAIN  50  45  83 SW9       29.61F
BENTON HARBOR  LGT RAIN  50  45  83 SW7       29.59F
COLDWATER*     RAIN      53  43  68 SW16G28   29.63S
HILLSDALE*     CLOUDY    52  39  61 SW7       29.63F
HOLLAND        CLOUDY    49  42  77 W5        29.59F
GRAND RAPIDS   CLOUDY    54  43  66 SW9       29.57F
KALAMAZOO      CLOUDY    52  45  77 S5        29.61F
STURGIS*       CLOUDY    50  45  81 S9        29.61F
THREE RIVERS*  LGT RAIN  52  44  74 SW5       29.61F

$$
OHZ001>008-015>018-024>025-041000-
NORTHWEST OHIO

CITY           SKY/WX    TMP DP  RH WIND       PRES   REMARKS
WAUSEON*         N/A     50 N/A N/A S10       29.65F
DEFIANCE       CLOUDY    52  44  74 S8        29.66F
FINDLAY        CLOUDY    50  42  74 S8        29.68F
TOLEDO EXPRESS CLOUDY    50  44  80 S6        29.66F
TOLEDO METCALF CLOUDY    50  43  77 S9        29.68F
LIMA           CLOUDY    50  44  80 S8        29.69F

$$
AND FOR LAKE MICHIGAN COASTAL AND OPEN LAKE BUOY OBSERVATIONS

STATION/POSITION TEMP    WIND        PRES    VSBY  WAVE
                 AIR SEA DIR/SP/G                  HT/PER
                 (F)     (DEG/KT/KT) (MB)    (MI)  (FT/S)
CALUMET HARBOR    51     300/  5/ 11 1003.2R
MICHIGAN CITY     51     230/ 25/ 29   N/A
BURNS HARBOR      52     250/ 13     1004.4R
SAINT JOSEPH      50     200/ 13/ 18 1003.0F
SOUTH LAKE BUOY   43 41   10/ 12/ 14 1002.6R         1/ 3
4 MI NW BRIDGMAN  48 48                N/A           3/ 3

$$
&&




USA.gov is the U.S. government's official web portal to all federal, state and local government web resources and services.